Flag for Nigeria Weather past 2 weeks in Sokoto, Nigeria

Now
75 °F

Clear.


Feels Like: 75 °F
Forecast: 72 / 94 °F
Wind: No wind

Location: Niamey-Aero

Current Time: Mar 30, 2015 at 2:26:47 AM

Latest Report: Mar 30, 2015 at 2:00 AM


Visibility: 5 mi

Pressure: 29.83 "Hg

Humidity: 13%

Dew point: 21 °F

Location of SokotoLocation

Historic Weather in Sokoto — Graph

°F

Sokoto temperature yesterday

Maximum temperature yesterday: 99 °F (at 3:00 PM)
Minimum temperature yesterday: 68 °F (at 7:00 AM)
Average temperature yesterday: 84 °F

Past Weeks' High & Low Weather Summary

 TemperatureHumidityPressure
High108 °F (Mar 23, 4:00 PM)43% (Mar 24, 6:00 AM)30.01 "Hg (Mar 24, 6:00 AM)
Low68 °F (Mar 29, 7:00 AM)4% (Mar 27, 1:00 PM)29.65 "Hg (Mar 19, 3:00 PM)
Average92 °F14%29.80 "Hg
* Reported Midnight between Mar 14 and Mar 15 — Midnight between Mar 29 and Mar 30, Sokoto, Weather by CustomWeather, © 2015

Note: Actual official high and low records may vary slightly from our data, if they occured in-between our weather recording intervals... More about our weather records

Advertising

Sokoto weather history for previous 24 hours

 ConditionsComfort  
Time TempWeatherWind HumidityBarometerVisibility
12:00 AM
Mon, Mar 30
82 °FClear.7 mph9%29.86 "Hg5 mi
11:00 PM
Sun, Mar 29
82 °FClear.3 mph9%29.89 "Hg5 mi
10:00 PM84 °FClear.2 mph9%29.86 "Hg10 mi
9:00 PM86 °FClear.2 mph8%29.83 "Hg10 mi
8:00 PM91 °FClear.2 mph6%29.80 "Hg10 mi
7:00 PM95 °FClear.6 mph5%29.80 "Hg4 mi
6:00 PM97 °FPassing clouds.5 mph4%29.77 "HgN/A
5:00 PM99 °FSunny.2 mph4%29.77 "Hg10 mi
4:00 PM99 °FPassing clouds.7 mph4%29.80 "HgN/A
3:00 PM99 °FPassing clouds.7 mph4%29.80 "HgN/A
2:00 PM97 °FPassing clouds.6 mph5%29.83 "HgN/A
10:00 AM84 °FClear.5 mph8%29.92 "Hg5 mi
9:00 AM81 °FClear.7 mph9%29.92 "Hg4 mi
8:00 AM75 °FDuststorm.3 mph12%29.89 "Hg3 mi
7:00 AM68 °FClear.1 mph16%29.86 "Hg5 mi
6:00 AM72 °FClear.2 mph15%29.83 "Hg10 mi
5:00 AM72 °FClear.5 mph15%29.83 "Hg10 mi
4:00 AM73 °FClear.1 mph13%29.83 "Hg10 mi
2:00 AM75 °FClear.2 mph10%29.86 "Hg10 mi
Weather by CustomWeather, © 2015

See weather overviewHow to use our weather pages